Weather History for Provincetown, MA

Change the Weather History Date:

Tuesday, December 11, 2012

  Actual Average Record
Temperature  
Mean Temperature 47 °F -  
Max Temperature 55 °F 43 °F 59 °F (1951)
Min Temperature 39 °F 33 °F 26 °F (1955)
Degree Days  
Heating Degree Days 18    
Moisture  
Dew Point 39 °F    
Average Humidity 75    
Maximum Humidity 100    
Minimum Humidity 53    
Precipitation  
Precipitation 0.00 in - - ()
Sea Level Pressure  
Sea Level Pressure 29.84 in    
Wind  
Wind Speed 12 mph (NW)    
Max Wind Speed 16 mph    
Max Gust Speed 23 mph    
Visibility 10 miles    
Events      
Averages and records for this station are not official NWS values.
T = Trace of Precipitation, MM = Missing Value Source: NWS Daily Summary

Daily Weather History Graph

Daily Weather History Graph

Search for Another Location

Airport:

Trip Planner

Search our weather history database for the weather conditions in past years. The results will help you decide how hot, cold, wet, or windy it might be!

Date:

Astronomy

Dec. 11, 2012 Rise Set
Actual Time 6:59 AM EST 4:09 PM EST
Civil Twilight 6:27 AM EST 4:40 PM EST
Nautical Twilight 5:52 AM EST 5:16 PM EST
Astronomical Twilight 5:18 AM EST 5:50 PM EST
Moon 4:49 AM EST (12/11) 2:46 PM EST (12/11)
Length of Visible Light 10h 13m
Length of Day
9h 09m
Waning Crescent, 4% of the Moon is Illuminated
Dec 11
Waning Crescent
Dec 13
New
Dec 20
First Quarter
Dec 28
Full
Jan 4
Last Quarter

Hourly Weather History & Observations

Time (EST) Temp. Windchill Dew Point Humidity Pressure Visibility Wind Dir Wind Speed Gust Speed Precip Events Conditions
12:15 AM 55.4 °F - 53.6 °F 94% 29.55 in 10.0 mi SW 15.0 mph 20.7 mph N/A   Overcast
12:35 AM 55.4 °F - 53.6 °F 94% 29.55 in 10.0 mi SW 15.0 mph 20.7 mph N/A   Overcast
12:55 AM 55.4 °F - 53.6 °F 94% 29.56 in 10.0 mi SW 15.0 mph - N/A   Overcast
1:15 AM 53.6 °F - 53.6 °F 100% 29.56 in 10.0 mi SW 13.8 mph 18.4 mph N/A   Overcast
1:35 AM 53.6 °F - 53.6 °F 100% 29.57 in 10.0 mi SW 12.7 mph - N/A   Overcast
1:55 AM 53.6 °F - 53.6 °F 100% 29.59 in 10.0 mi SW 11.5 mph - N/A   Overcast
2:15 AM 53.6 °F - 51.8 °F 94% 29.59 in 10.0 mi SW 9.2 mph - N/A   Overcast
2:35 AM 53.6 °F - 53.6 °F 100% 29.61 in 10.0 mi SW 10.4 mph - N/A   Overcast
2:55 AM 53.6 °F - 53.6 °F 100% 29.61 in 10.0 mi SW 10.4 mph - N/A   Overcast
3:15 AM 48.2 °F - 44.6 °F 87% 29.63 in 10.0 mi North 11.5 mph 21.9 mph N/A   Overcast
3:55 AM 48.2 °F - 44.6 °F 87% 29.65 in 10.0 mi NNW 9.2 mph - N/A   Overcast
4:15 AM 48.2 °F - 44.6 °F 87% 29.66 in 10.0 mi North 10.4 mph - N/A   Overcast
4:35 AM 48.2 °F - 44.6 °F 87% 29.67 in 10.0 mi NNW 11.5 mph - N/A   Overcast
4:55 AM 48.2 °F - 42.8 °F 82% 29.67 in 10.0 mi North 9.2 mph - N/A   Overcast
5:35 AM 48.2 °F - 42.8 °F 82% 29.69 in 10.0 mi NNW 9.2 mph - N/A   Overcast
5:55 AM 48.2 °F - 42.8 °F 82% 29.72 in 10.0 mi NNW 10.4 mph - N/A   Overcast
6:16 AM 48.2 °F - 41.0 °F 76% 29.71 in 10.0 mi North 11.5 mph - N/A   Overcast
6:35 AM 48.2 °F - 42.8 °F 82% 29.71 in 10.0 mi North 11.5 mph - N/A   Overcast
6:55 AM 48.2 °F - 39.2 °F 71% 29.72 in 10.0 mi North 4.6 mph - N/A   Overcast
7:15 AM 48.2 °F - 42.8 °F 82% 29.73 in 10.0 mi North 8.1 mph - N/A   Overcast
7:35 AM 48.2 °F - 42.8 °F 82% 29.74 in 10.0 mi North 9.2 mph 16.1 mph N/A   Overcast
8:35 AM 46.4 °F 42.4 °F 42.8 °F 87% 29.77 in 10.0 mi NNW 8.1 mph - N/A   Overcast
9:15 AM 46.4 °F 41.1 °F 44.6 °F 93% 29.83 in 10.0 mi NW 11.5 mph 16.1 mph N/A   Mostly Cloudy
9:35 AM 46.4 °F 40.1 °F 41.0 °F 81% 29.84 in 10.0 mi NW 15.0 mph - N/A   Overcast
10:15 AM 46.4 °F 40.4 °F 39.2 °F 76% 29.83 in 10.0 mi NW 13.8 mph 19.6 mph N/A   Mostly Cloudy
10:35 AM 46.4 °F 40.7 °F 39.2 °F 76% 29.81 in 10.0 mi NW 12.7 mph - N/A   Overcast
12:15 PM 48.2 °F - 39.2 °F 71% 29.84 in 10.0 mi NW 13.8 mph 19.6 mph N/A   Clear
1:15 PM 48.2 °F - 37.4 °F 66% 29.86 in 10.0 mi NW 12.7 mph 17.3 mph N/A   Clear
1:35 PM 48.2 °F - 37.4 °F 66% 29.87 in 10.0 mi NW 11.5 mph 19.6 mph N/A   Clear
2:15 PM 46.4 °F 40.1 °F 35.6 °F 66% 29.89 in 10.0 mi NW 15.0 mph - N/A   Overcast
2:35 PM 46.4 °F 40.4 °F 35.6 °F 66% 29.90 in 10.0 mi NW 13.8 mph - N/A   Overcast
2:55 PM 48.2 °F - 35.6 °F 62% 29.91 in 10.0 mi NW 12.7 mph - N/A   Overcast
3:35 PM 46.4 °F 41.1 °F 33.8 °F 62% 29.92 in 10.0 mi NW 11.5 mph 19.6 mph N/A   Clear
3:55 PM 46.4 °F 41.5 °F 33.8 °F 62% 29.93 in 10.0 mi NW 10.4 mph - N/A   Clear
4:15 PM 44.6 °F 40.2 °F 33.8 °F 66% 29.95 in 10.0 mi NW 8.1 mph - N/A   Clear
4:55 PM 44.6 °F 39.7 °F 35.6 °F 71% 29.98 in 10.0 mi NW 9.2 mph - N/A   Mostly Cloudy
5:15 PM 44.6 °F 39.7 °F 32.0 °F 61% 29.99 in 10.0 mi NW 9.2 mph - N/A   Mostly Cloudy
5:35 PM 44.6 °F 39.7 °F 33.8 °F 66% 29.99 in 10.0 mi NW 9.2 mph - N/A   Clear
5:55 PM 44.6 °F 38.4 °F 30.2 °F 57% 30.00 in 10.0 mi WNW 12.7 mph - N/A   Clear
6:15 PM 44.6 °F 38.8 °F 28.4 °F 53% 30.02 in 10.0 mi WNW 11.5 mph - N/A   Clear
7:55 PM 42.8 °F 36.6 °F 32.0 °F 66% 30.06 in 10.0 mi NW 11.5 mph 17.3 mph N/A   Partly Cloudy
8:15 PM 42.8 °F 35.8 °F 30.2 °F 61% 30.07 in 10.0 mi NW 13.8 mph - N/A   Clear
8:56 PM 42.8 °F 35.1 °F 30.2 °F 61% 30.08 in 10.0 mi NW 16.1 mph 21.9 mph N/A   Mostly Cloudy
9:15 PM 42.8 °F 35.4 °F 28.4 °F 57% 30.09 in 10.0 mi NW 15.0 mph 19.6 mph N/A   Overcast
9:35 PM 42.8 °F 35.4 °F 28.4 °F 57% 30.09 in 10.0 mi WNW 15.0 mph - N/A   Mostly Cloudy
9:55 PM 41.0 °F 33.1 °F 28.4 °F 61% 30.09 in 10.0 mi WNW 15.0 mph 19.6 mph N/A   Clear
10:15 PM 41.0 °F 32.8 °F 28.4 °F 61% 30.10 in 10.0 mi WNW 16.1 mph 19.6 mph N/A   Clear
10:35 PM 41.0 °F 33.5 °F 30.2 °F 65% 30.11 in 10.0 mi NW 13.8 mph - N/A   Clear
10:55 PM 39.2 °F 30.8 °F 28.4 °F 65% 30.12 in 10.0 mi WNW 15.0 mph 21.9 mph N/A   Partly Cloudy
11:15 PM 39.2 °F 30.8 °F 28.4 °F 65% 30.12 in 10.0 mi WNW 15.0 mph 23.0 mph N/A   Partly Cloudy
11:35 PM 39.2 °F 30.8 °F 28.4 °F 65% 30.13 in 10.0 mi NW 15.0 mph 19.6 mph N/A   Partly Cloudy
11:55 PM 39.2 °F 31.2 °F 26.6 °F 61% 30.14 in 10.0 mi NW 13.8 mph 19.6 mph N/A   Scattered Clouds